Regional Weather Roundup
Issued by NWS Portland, ME

Home | Current Version | Previous Version | Text Only | Print | Product List | Glossary On
Versions: 1 2 3 4 5 6 7 8 9 10 11 12 13 14 15 16 17 18 19 20 21 22 23 24 25 26 27 28 29 30 31 32 33 34 35 36 37 38 39 40 41 42 43 44 45 46 47 48 49 50
000
ASUS41 KGYX 221910
RWRGYX
WEATHER ROUNDUP FOR MAINE AND NEW HAMPSHIRE
NATIONAL WEATHER SERVICE GRAY ME
300 PM EDT FRI SEP 22 2017

MEZ002-005-006-010-012-015-018-020-021-024-026-027-029-222000-
MAINE

CITY           SKY/WX    TMP DP  RH WIND       PRES   REMARKS
PORTLAND       CLOUDY    68  51  54 NE13      30.07F
SANFORD        CLOUDY    70  52  52 NE17      30.06F
BAR HARBOR     CLOUDY    72  46  39 E8        30.08F
WISCASSET      CLOUDY    71  49  45 NE7       30.09F
ROCKLAND       CLOUDY    68  52  56 NE8G16    30.08F
FRYEBURG       CLOUDY    73  43  33 NE5       30.10F
LEWISTONAUBURN CLOUDY    70  50  49 NE5       30.09F
AUGUSTA        CLOUDY    72  47  40 N14       30.10F
WATERVILLE     PTSUNNY   72  47  40 NE7       30.07F
BANGOR         MOSUNNY   76  47  35 N7        30.10F
GREENVILLE       N/A     70  43  37 NW6       30.13F
MILLINOCKET    SUNNY     74  38  27 N5        30.13F
HOULTON        SUNNY     75  42  30 NW5       30.12F
PRESQUE ISLE   SUNNY     72  46  39 CALM      30.14F
FRENCHVILLE    SUNNY     71  45  39 SE8       30.13F
CARIBOU        SUNNY     74  45  35 NE3       30.12F
$$

NHZ002-005-008-009-011-012-014-222000-
NEW HAMPSHIRE

CITY           SKY/WX    TMP DP  RH WIND       PRES   REMARKS
PORTSMOUTH     PTSUNNY   69  56  63 NE10G22   30.02F
ROCHESTER      CLOUDY    70  51  51 N13G22    30.05S
NASHUA         CLOUDY    70  55  59 N8G18     30.03F
MANCHESTER     PTSUNNY   72  53  51 N15G26    30.02F
CONCORD        CLOUDY    70  50  49 NE14      30.06F
LACONIA        CLOUDY    70  46  42 NE8       30.09S
PLYMOUTH       CLOUDY    72  46  38 CALM      30.08F
BERLIN         SUNNY     78  24  13 E7        30.12S
WHITEFIELD     SUNNY     78  39  24 NE10      30.10F
JAFFREY        CLOUDY    69  53  56 N9G17     30.07S
KEENE          CLOUDY    72  53  51 NE7       30.06F
LEBANON        CLOUDY    76  52  43 NW5       30.08F
MT WASHINGTON  PTSUNNY   54  48  82 E21         N/A
$$

VTZ005-007-008-222000-
VERMONT

CITY           SKY/WX    TMP DP  RH WIND       PRES   REMARKS
ST JOHNSBURY     N/A     78  41  26 MISG      30.08F
MONTPELIER     SUNNY     76  45  33 VRB3      30.14F
BURLINGTON     MOSUNNY   77  54  44 NW9       30.10F
$$

MAZ007-012-024-CTZ003-RIZ002-NYZ038-NYZ072-222000-
SOUTHERN NEW ENGLAND AND NY

CITY           SKY/WX    TMP DP  RH WIND       PRES   REMARKS
BOSTON         CLOUDY    60  57  89 N22G32    29.99F
WORCESTER      CLOUDY    65  53  65 N14G22    30.01F
NANTUCKET      LGT RAIN  62  62 100 NE28G37   29.78F FOG
PROVIDENCE     CLOUDY    61  59  93 N20G36    29.95F
HARTFORD       MOSUNNY   77  54  44 N20G30    29.98F
ALBANY         CLOUDY    78  49  35 N13       30.06F
NEW YORK CITY  MOSUNNY   80  58  46 N14G24    29.94F
$$

ANZ081-ANZ082-ANZ150-NHZ014-MEZ023>029-222000-
COASTAL MARINE OBSERVATIONS

STATION/POSITION TIME  TEMP    WIND        PRES    WAVE
                       AIR SEA DIR/SP/G            HT/PER
                 (UTC) (F)     (DEG/KT/KT) (MB)    (FT/S)
MOUNT DESERT ROC 1900   57      20/ 22/ 24 1018.0F
MATINICUS ROCK   1800   56      50/ 20/ 22 1017.8F
ISLE OF SHOALS   1800   60      20/ 24/ 27 1016.3F
JEFFREYS LEDGE   1806      62                N/A    12/11
CASHES LEDGE BUO 1850   57 58              1015.7   11/ 9
GEORGES BANK BUO 1750   72 72              1009.3   14/10
$$

.............KEY..............
   WCI - WIND CHILL
   TC  - TEMPERATURE IN CELSIUS
   VSB - VISIBILITY IN MILES
   HX  - HEAT INDEX
   FAIR- INDICATES FEW OR NO CLOUDS BELOW 12,000 FT, WITH NO
         SIGNIFICANT WEATHER AND/OR OBSTRUCTIONS TO VISIBILITY.






USA.gov is the U.S. government's official web portal to all federal, state and local government web resources and services.